sat.trackr.live / text

‹ back to catalog

STARLINK-34226

NORAD 64494 · 2025-133Y

PAYLOAD ACTIVE UNKNOWN

§ Identity

Operator
Country
US
Launch date
2025-06-23
Launch site
AFETR
Launch vehicle
Mass (kg)
RCS (m²)

Purposes: comms

External: N2YO · Heavens-Above · Gunter

§ Orbital elements

Epoch: 2026-09-20T13:40:04.128672Z

Period
94.01 min
Inclination
53.1567°
Eccentricity
0.0000737
Mean motion
15.31761247 rev/d
Perigee alt
470.1 km
Apogee alt
471.1 km
Semi-major
6,848.7 km
B*
5.4461e-4
RAAN
290.3034°
Arg perigee
97.0401°
Mean anomaly
263.0684°
Rev number
7,087

§ Raw data

STARLINK-342261 64494U 25133Y   26263.56949223  .00016605  00000+0  54461-3 0  99902 64494  53.1567 290.3034 0000737  97.0401 263.0684 15.31761247 70873

JSON: /api/v1/satellites/64494 · /tle

For live sub-satellite position, see the globe view (requires WebGL).

§ Visibility from observer

Set your observer location to see the next 7 days of passes ≥ 10°. The values pass through the URL so the page stays shareable.

No JS? Fill the form by hand. The geolocation button needs JavaScript.